Showing default

HAWK-6B, 55324

Orbit data source: Space-Track

HAWK-6B, 55324 is a payload satellite owned by HawkEye 360 (US) in LEO that was launched on Tue, 24 Jan 2023 UTC via an ELECTRON launch vehicle from the Wallops Island (WLPIS). Payload-class satellites include a variety of spacecraft equipped with specific instruments for various scientific and technological missions. These include communications satellites like Starlink; space stations such as the ISS; scientific satellites like the Hubble; Earth observation satellites from companies like Planet Labs, Umbra, and HawkEye 360; GPS; miniature CubeSats for education and research; and military/defense satellites.

Loading next visibility...
Identifier
55324, 2023-011A
Orbit
LEO
Country
Flag of USUS
Related business
Manufacturer
UTIAS-SFL
Mission
Operational Commercial Sigint
Bus & Motor
HAWK2G, Unknown motor
Mass
31 kg wet, 30 kg dry
Launch date (UTC)
2023-01-24 (3 years ago)
Launch vehicle
ELECTRON
Launch site
Wallops Island (WLPIS)
Object type
Payload
Rocket body
Debris
Shape & HBR
Box + 2 Pan, 1.0 m
Radar Cross Section
0.240 m², Medium (>0.1 m² and < 1m²)

Expand to show TLE details & history
Last TLE update: 2 days ago

TLE from 2 days ago
0 HAWK-6B
1 55324U 23011A   26171.46186860  .00004005  00000-0  17506-3 0  9993
2 55324  40.4999 332.9712 0001801  24.0785 336.0108 15.22959188188344
Epoch: 2026-06-20T11:05Z
TLE epoch observation values (Epoch: 2026-06-20T11:05:05.447Z)
Latitude
-0.00002°
Longitude
-101.97767°
Altitude
495.289 km
Speed
7.62 km/s
True Right ascension
22h 11m 53s
True Declination
0° 00' 00"
Sunlit
Object was in full shadow at epoch
Visualization orbit readout
Latitude
Unknown
Longitude
Unknown
Altitude
Unknown
Speed
Unknown
Apparent Right ascension
Unknown
Apparent Declination
Unknown
Sunlit
N/A
Visualization observer readout
Local Sidereal Time
21:39:57
Azimuth
Unknown
Elevation
Unknown
Doppler factor
Unknown
Orbital elements
Apogee altitude
500.517 km
Perigee altitude
498.04 km
Semi-major axis
6,877.415 km
Eccentricity
0.00018
Inclination
40.4999°
RAAN
332.9712°
Arg. of periapsis
24.0785°
True anomaly
336.00241°
Mean anomaly
336.0108°
Eccentric anomaly
336.0066°
Mean motion
3.80544 °/min
Orbital period
94.6 mins
BSTAR
0.00017506
Loading maneuver chart data...
Computing Atmospheric mass density...
Loading historical data...
Loading historical data...
Loading historical data...
Loading historical data...
Loading historical data...
Loading historical data...
Loading historical data...

Documentation

Showing up to 5 results
|